Regional Weather Roundup
Issued by NWS Austin/San Antonio, TX

Home | Current Version | Previous Version | Text Only | Print | Product List | Glossary On
Versions: 1 2 3 4 5 6 7 8 9 10 11 12 13 14 15 16 17 18 19 20 21 22 23 24 25 26 27 28 29 30 31 32 33 34 35 36 37 38 39 40 41 42 43 44 45 46 47 48 49 50
000
ASUS44 KEWX 291411
RWREWX
SOUTH TEXAS REGIONAL WEATHER ROUNDUP
NATIONAL WEATHER SERVICE AUSTIN/SAN ANTONIO TX
900 AM CDT THU JUN 29 2017

NOTE: "FAIR" INDICATED FEW OR NO CLOUDS BELOW 12,000 FEET WITH NO
SIGNIFICANT WEATHER AND/OR OBSTRUCTIONS TO VISIBILITY.

* - THESE STATIONS ARE NOT NWS OR FAA STATIONS...AND ARE NOT SUBJECT
    TO NWS AND FAA QUALITY CONTROL.

TXZ171-172-183>190-291500-
TEXAS HILL COUNTRY AND EDWARDS PLATEAU

CITY           SKY/WX    TMP DP  RH WIND       PRES   REMARKS
JUNCTION       SUNNY     80  71  74 SW12      29.90R
*LLANO         SUNNY     81  73  78 SE5       29.93R
BURNET         SUNNY     78  70  76 S7        29.93R
*HORSESHOE BAY SUNNY     81  72  75 MISG      29.91R
*KERRVILLE     MOSUNNY   79  74  83 S9        29.92R
*FREDERICKSBRG SUNNY     79  69  71 S13       29.93R
*ROCKSPRINGS   SUNNY     79  79 100 S10       29.96R
*BOERNE STAGE  SUNNY     77  72  83 SE3       29.93R
*CASTROVILLE   CLOUDY    76  75  98 SE6       29.92R FOG
HONDO          MOSUNNY   80  74  81 SE7       29.90R
*UVALDE        SUNNY     78  73  85 E7        29.89R
DEL RIO        MOSUNNY   79  73  82 SE10      29.85R
LAUGHLIN AFB   PTSUNNY   81  73  78 S12       29.86R
CARRIZO SPRGS  SUNNY     81  73  78 SE9       29.85R
*EAGLE PASS    SUNNY     82  73  74 SE10      29.85R
$$

TXZ173-191>194-202-209-217>225-228-291500-
CENTRAL AND SOUTH CENTRAL TEXAS

CITY           SKY/WX    TMP DP  RH WIND       PRES   REMARKS
GEORGETOWN     MOSUNNY   81  70  69 SE7       29.90R
AUSTIN/BERGSTM CLOUDY    79  75  87 S5        29.90R
AUSTIN/MABRY   PTSUNNY   81  73  76 VRB7      29.91R
*AUSTIN/EXEC     N/A     77  75  94 S5        29.91R
*LAGO VISTA    MOSUNNY   79  73  82 S7        29.93R
SAN MARCOS     FOG       73  73 100 SE6       29.92R VSB 1/2
NEW BRAUNFELS  CLOUDY    76  75  97 SE7       29.89R FOG
RANDOLPH AFB   CLOUDY    75  75 100 SE7       29.90R FOG
PT SAN ANTONIO PTSUNNY   78  75  90 SE7       29.88R
SAN ANTONIO    PTSUNNY   77  73  87 SE7       29.91R
STINSON FIELD  CLOUDY    79  75  87 SE9       29.88R
*LA GRANGE     CLOUDY    78  77  98 SE6       29.88S
*GIDDINGS      CLOUDY    77  73  90 S5        29.91R
*GONZALES      CLOUDY    79  79 100 SE7       29.90R
$$

TXZ163>164-176>182-195>201-210>213-226-227-235-291500-
SOUTHEAST TEXAS

CITY           SKY/WX    TMP DP  RH WIND       PRES   REMARKS
COLLEGE STN    PTSUNNY   79  74  84 S9        29.91R
*BRYAN         MOSUNNY   78  76  91 SE6       29.92R
*CALDWELL      NOT AVBL
*CROCKETT      CLOUDY    73  73 100 S6        29.96R FOG
*BRENHAM       CLOUDY    79  77  94 CALM      29.91R
HUNTSVILLE     CLOUDY    77  72  84 S5        29.92R
CONROE         CLOUDY    76  74  93 CALM      29.92R
HOUSTON BUSH   PTSUNNY   80  76  87 S3        29.90R
HOUSTON HOBBY  MOSUNNY   81  75  82 S8        29.90R
*HOUSTON SW AP CLOUDY    78  74  87 S3        29.92R
PEARLAND       CLOUDY    80  75  84 S7        29.92R
HOUSTON HOOKS  PTSUNNY   81  75  82 SE3       29.90R
ELLINGTON FLD  PTSUNNY   79  77  94 S6        29.92R
SUGAR LAND     MOSUNNY   82  77  84 S3        29.90R HX  90
*HOUSTON EXEC  MOSUNNY   81  77  89 S6        29.92R
*CLEVELAND MUN CLOUDY    76  75  97 CALM      29.92S
*WHARTON       PTSUNNY   80  76  87 S5        29.91R
*COLUMBUS      PTSUNNY   78  76  92 S5        29.91R
*EAGLE LAKE    MOSUNNY   81  79  95 CALM      29.89R HX  90
$$

TXZ214>216-236>238-291500-
THE UPPER TEXAS COAST

CITY           SKY/WX    TMP DP  RH WIND       PRES   REMARKS
*ORANGE        CLOUDY    76  76  99 SW5       29.95S
PORT ARTHUR    CLOUDY    75  73  93 E3        29.92R THUNDER
GALVESTON      CLOUDY    84  79  85 S14G23    29.92R HX  96
ANGLETON       PTSUNNY   78  77  96 CALM      29.91R
*BAY CITY      CLOUDY    78  75  92 SW6       29.90R
PALACIOS       LGT RAIN  76  75  97 SE6       29.90R
$$

TXZ229>234-239>247-291500-
TEXAS COASTAL BEND AND RIO GRANDE PLAINS

CITY           SKY/WX    TMP DP  RH WIND       PRES   REMARKS
VICTORIA       MOSUNNY   81  77  88 S5        29.89R
*BEEVILLE      PTSUNNY   70  69  99 S15       29.88R
ROCKPORT       SUNNY     83  77  82 S6        29.88R HX  92
*PORT ARANSAS  PTSUNNY   85  76  74 S15       29.88R HX  95
*PORT LAVACA   MOSUNNY   79  79 100 CALM      29.89S
*INGLESIDE     MOSUNNY   87  78  75 MISG      29.87R HX  99
CORPUS CHRISTI MOSUNNY   83  79  88 S10       29.88R HX  94
CORPUS NAS     MOSUNNY   88  78  72 S17G23    29.88R HX 101
*ROBSTOWN      MOSUNNY   84  78  81 S13G18    29.88R HX  95
ALICE          PTSUNNY   83  76  79 S15       29.87R HX  91
KINGSVILLE NAS MOSUNNY   84  80  88 S16       29.87R HX  97
COTULLA        PTSUNNY   80  74  81 SE13      29.87R
*FAITH RANCH   SUNNY     82  75  78 S7        29.86R
LAREDO         MOSUNNY   83  75  77 SE13      29.86R HX  90
$$

TXZ248>255-291500-
DEEP SOUTH TEXAS

CITY           SKY/WX    TMP DP  RH WIND       PRES   REMARKS
BROWNSVILLE    MOSUNNY   83  79  88 S12       29.88R HX  94
PORT ISABEL    SUNNY     86  78  77 S17       29.87R HX  98
*SOUTH PADRE   NOT AVBL
HARLINGEN      SUNNY     84  80  88 S17       29.86R HX  97
*HEBBRONVILLE  CLOUDY    77  75  92 S9        29.89R
MCALLEN        SUNNY     86  76  71 S14G21    29.87R HX  96
*WESLACO       MOSUNNY   84  77  78 S16       29.86R HX  94
FALFURRIAS     MOSUNNY   83  77  80 CALM      29.87R HX  93
EDINBURG       MOSUNNY   87  75  68 S14       29.87R HX  95
*ZAPATA        CLOUDY    81  74  80 SE9       29.85R
$$

TXZ213>215-236>238-242>244-246-247-251-254-255-291500-
CMAN STATIONS

STATION/POSITION TIME  TEMP    WIND        PRES    WAVE
                       AIR SEA DIR/SP/G            HT/PER
                 (UTC) (F)     (DEG/KT/KT) (MB)    (FT/S)
SABINE PASS      1348   80 84  180/ 11/ 14 1014.8
SEA RIM ST PARK  1400   81     200/ 13/ 16 1013.5
NORTH JETTY/GLS  1348          180/ 15/ 18   N/A
EAGLE POINT      1348   79 83  260/  7/  9 1012.8
MORGANS POINT    1348   78 84  230/  6/ 10 1012.3
MISSION/ARANSAS  1300          190/  6       N/A
PORT O`CONNOR    1342   76     260/  8/ 10 1011.9
PORT ARANSAS     1400   84 84  170/ 17/ 19 1011.8
MALAQUITE BEACH  1348   85 85  170/ 18/ 22 1011.0
PORT ISABEL      1348   84 85              1011.8
$$



USA.gov is the U.S. government's official web portal to all federal, state and local government web resources and services.